Location: Pace/Milton
(30.6162°N, 87.1503°W)
Time: 16:56:48
(UTC-06:00)

ISS - Pass Details

Date: 05 December 2021
Orbit: 413 x 422 km, 51.6° (Epoch: 28 January)

Event Time Altitude Azimuth Distance (km) Brightness Sun altitude
Rises 17:51:30 0° 333° (NNW) 2,377 0.2 -13.7°
Reaches altitude 10° 17:54:16 10° 357° (N) 1,506 -1.1 -14.2°
Enters shadow 17:55:27 14° 16° (NNE) 1,282 -1.6 -14.5°
